Voltar ao catálogo

COSMOS 1925

AtivoMilitarLEO
NORAD 18938·PAYLOAD·🇷🇺 Russia

Lançado Mar 11, 1988 de Plesetsk Cosmodrome

Loading…

Próximas Passagens (próximas 24 horas)

TLE

AtualizadoSource: Space-Track

Época: Sep 14, 2026, 12:38 UTC

1 18938U 88016B   26257.52650531 -.00000009  00000-0  46406-4 0  9995
2 18938  74.0040 293.9765 0024025 194.8924 236.4344 12.46850634752916

Acompanhe COSMOS 1925 em tempo real com AllMySat

Download on the App Store